owner,sensor,date,latitude,longitude,air_pressure(mBar),qcFlag 
DISL,ioos:station:DISL:BSCA:1,2013-12-01T00:00:00Z,30.3288,-87.8293,1025.4,11111222 
DISL,ioos:station:DISL:BSCA:1,2013-12-01T00:30:00Z,30.3288,-87.8293,1025.7,11111222 
DISL,ioos:station:DISL:BSCA:1,2013-12-01T01:00:00Z,30.3288,-87.8293,1025.7,11111222 
DISL,ioos:station:DISL:BSCA:1,2013-12-01T01:30:00Z,30.3288,-87.8293,1025.7,11111222 
DISL,ioos:station:DISL:BSCA:1,2013-12-01T02:00:00Z,30.3288,-87.8293,1025.4,11111222 
DISL,ioos:station:DISL:BSCA:1,2013-12-01T02:30:00Z,30.3288,-87.8293,1025.1,11111222 
DISL,ioos:station:DISL:BSCA:1,2013-12-01T03:00:00Z,30.3288,-87.8293,1024.7,11111222 
DISL,ioos:station:DISL:BSCA:1,2013-12-01T03:30:00Z,30.3288,-87.8293,1024.7,11111222 
DISL,ioos:station:DISL:BSCA:1,2013-12-01T04:00:00Z,30.3288,-87.8293,1025.1,11111222 
DISL,ioos:station:DISL:BSCA:1,2013-12-01T04:30:00Z,30.3288,-87.8293,1025.4,11111222 
DISL,ioos:station:DISL:BSCA:1,2013-12-01T05:00:00Z,30.3288,-87.8293,1025.1,11111222 
DISL,ioos:station:DISL:BSCA:1,2013-12-01T05:30:00Z,30.3288,-87.8293,1024.4,11111222 
DISL,ioos:station:DISL:BSCA:1,2013-12-01T06:00:00Z,30.3288,-87.8293,1024.4,11111222 
DISL,ioos:station:DISL:BSCA:1,2013-12-01T06:30:00Z,30.3288,-87.8293,1024.0,11111222 
DISL,ioos:station:DISL:BSCA:1,2013-12-01T07:00:00Z,30.3288,-87.8293,1024.0,11111222 
DISL,ioos:station:DISL:BSCA:1,2013-12-01T07:30:00Z,30.3288,-87.8293,1024.0,11111222 
DISL,ioos:station:DISL:BSCA:1,2013-12-01T08:00:00Z,30.3288,-87.8293,1023.7,11111222 
DISL,ioos:station:DISL:BSCA:1,2013-12-01T08:30:00Z,30.3288,-87.8293,1023.7,11111222 
DISL,ioos:station:DISL:BSCA:1,2013-12-01T09:00:00Z,30.3288,-87.8293,1023.4,11111222 
DISL,ioos:station:DISL:BSCA:1,2013-12-01T09:30:00Z,30.3288,-87.8293,1023.7,11111222 
DISL,ioos:station:DISL:BSCA:1,2013-12-01T10:00:00Z,30.3288,-87.8293,1023.4,11111222 
DISL,ioos:station:DISL:BSCA:1,2013-12-01T10:30:00Z,30.3288,-87.8293,1023.4,11111222 
DISL,ioos:station:DISL:BSCA:1,2013-12-01T11:00:00Z,30.3288,-87.8293,1023.4,11111222 
DISL,ioos:station:DISL:BSCA:1,2013-12-01T11:30:00Z,30.3288,-87.8293,1023.7,11111222 
DISL,ioos:station:DISL:BSCA:1,2013-12-01T12:00:00Z,30.3288,-87.8293,1023.7,11111222 
DISL,ioos:station:DISL:BSCA:1,2013-12-01T12:30:00Z,30.3288,-87.8293,1024.0,11111222 
DISL,ioos:station:DISL:BSCA:1,2013-12-01T13:00:00Z,30.3288,-87.8293,1024.7,11111222 
DISL,ioos:station:DISL:BSCA:1,2013-12-01T13:30:00Z,30.3288,-87.8293,1024.7,11111222 
DISL,ioos:station:DISL:BSCA:1,2013-12-01T14:00:00Z,30.3288,-87.8293,1024.7,11111222 
DISL,ioos:station:DISL:BSCA:1,2013-12-01T14:30:00Z,30.3288,-87.8293,1025.1,11111222 
DISL,ioos:station:DISL:BSCA:1,2013-12-01T15:00:00Z,30.3288,-87.8293,1025.4,11111222 
DISL,ioos:station:DISL:BSCA:1,2013-12-01T15:30:00Z,30.3288,-87.8293,1024.4,11111222 
DISL,ioos:station:DISL:BSCA:1,2013-12-01T16:00:00Z,30.3288,-87.8293,1024.0,11111222 
DISL,ioos:station:DISL:BSCA:1,2013-12-01T16:30:00Z,30.3288,-87.8293,1024.0,11111222 
DISL,ioos:station:DISL:BSCA:1,2013-12-01T17:00:00Z,30.3288,-87.8293,1023.4,11111222 
DISL,ioos:station:DISL:BSCA:1,2013-12-01T17:30:00Z,30.3288,-87.8293,1022.7,11111222 
DISL,ioos:station:DISL:BSCA:1,2013-12-01T18:00:00Z,30.3288,-87.8293,1022.0,11111222 
DISL,ioos:station:DISL:BSCA:1,2013-12-01T18:30:00Z,30.3288,-87.8293,1021.3,11111222 
DISL,ioos:station:DISL:BSCA:1,2013-12-01T19:00:00Z,30.3288,-87.8293,1020.3,11111222 
DISL,ioos:station:DISL:BSCA:1,2013-12-01T19:30:00Z,30.3288,-87.8293,1020.0,11111222 
DISL,ioos:station:DISL:BSCA:1,2013-12-01T20:00:00Z,30.3288,-87.8293,1019.6,11111222 
DISL,ioos:station:DISL:BSCA:1,2013-12-01T20:30:00Z,30.3288,-87.8293,1019.3,11111222 
DISL,ioos:station:DISL:BSCA:1,2013-12-01T21:00:00Z,30.3288,-87.8293,1019.0,11111222 
DISL,ioos:station:DISL:BSCA:1,2013-12-01T21:30:00Z,30.3288,-87.8293,1019.0,11111222 
DISL,ioos:station:DISL:BSCA:1,2013-12-01T22:00:00Z,30.3288,-87.8293,1018.6,11111222 
DISL,ioos:station:DISL:BSCA:1,2013-12-01T22:30:00Z,30.3288,-87.8293,1018.6,11111222 
DISL,ioos:station:DISL:BSCA:1,2013-12-01T23:00:00Z,30.3288,-87.8293,1018.3,11111222 
DISL,ioos:station:DISL:BSCA:1,2013-12-01T23:30:00Z,30.3288,-87.8293,1018.3,11111222 
DISL,ioos:station:DISL:BSCA:1,2013-12-02T00:00:00Z,30.3288,-87.8293,1018.3,11111222 
DISL,ioos:station:DISL:BSCA:1,2013-12-02T00:30:00Z,30.3288,-87.8293,1018.3,11111222 
DISL,ioos:station:DISL:BSCA:1,2013-12-02T01:00:00Z,30.3288,-87.8293,1018.0,11111222 
DISL,ioos:station:DISL:BSCA:1,2013-12-02T01:30:00Z,30.3288,-87.8293,1017.6,11111222 
DISL,ioos:station:DISL:BSCA:1,2013-12-02T02:00:00Z,30.3288,-87.8293,1017.6,11111222 
DISL,ioos:station:DISL:BSCA:1,2013-12-02T02:30:00Z,30.3288,-87.8293,1017.6,11111222 
DISL,ioos:station:DISL:BSCA:1,2013-12-02T03:00:00Z,30.3288,-87.8293,1017.6,11111222 
DISL,ioos:station:DISL:BSCA:1,2013-12-02T03:30:00Z,30.3288,-87.8293,1017.3,11111222 
DISL,ioos:station:DISL:BSCA:1,2013-12-02T04:00:00Z,30.3288,-87.8293,1017.3,11111222 
DISL,ioos:station:DISL:BSCA:1,2013-12-02T04:30:00Z,30.3288,-87.8293,1017.3,11111222 
DISL,ioos:station:DISL:BSCA:1,2013-12-02T05:00:00Z,30.3288,-87.8293,1016.9,11111222 
DISL,ioos:station:DISL:BSCA:1,2013-12-02T05:30:00Z,30.3288,-87.8293,1016.9,11111222 
DISL,ioos:station:DISL:BSCA:1,2013-12-02T06:00:00Z,30.3288,-87.8293,1016.3,11111222 
DISL,ioos:station:DISL:BSCA:1,2013-12-02T06:30:00Z,30.3288,-87.8293,1016.3,11111222 
DISL,ioos:station:DISL:BSCA:1,2013-12-02T07:00:00Z,30.3288,-87.8293,1015.9,11111222 
DISL,ioos:station:DISL:BSCA:1,2013-12-02T07:30:00Z,30.3288,-87.8293,1015.2,11111222 
DISL,ioos:station:DISL:BSCA:1,2013-12-02T08:00:00Z,30.3288,-87.8293,1015.2,11111222 
DISL,ioos:station:DISL:BSCA:1,2013-12-02T08:30:00Z,30.3288,-87.8293,1014.9,11111222 
DISL,ioos:station:DISL:BSCA:1,2013-12-02T09:00:00Z,30.3288,-87.8293,1014.9,11111222 
DISL,ioos:station:DISL:BSCA:1,2013-12-02T09:30:00Z,30.3288,-87.8293,1014.6,11111222 
DISL,ioos:station:DISL:BSCA:1,2013-12-02T10:00:00Z,30.3288,-87.8293,1014.2,11111222 
DISL,ioos:station:DISL:BSCA:1,2013-12-02T10:30:00Z,30.3288,-87.8293,1013.5,11111222 
DISL,ioos:station:DISL:BSCA:1,2013-12-02T11:00:00Z,30.3288,-87.8293,1013.5,11111222 
DISL,ioos:station:DISL:BSCA:1,2013-12-02T11:30:00Z,30.3288,-87.8293,1013.9,11111222 
DISL,ioos:station:DISL:BSCA:1,2013-12-02T12:00:00Z,30.3288,-87.8293,1013.5,11111222 
DISL,ioos:station:DISL:BSCA:1,2013-12-02T12:30:00Z,30.3288,-87.8293,1013.9,11111222 
DISL,ioos:station:DISL:BSCA:1,2013-12-02T13:00:00Z,30.3288,-87.8293,1013.5,11111222 
DISL,ioos:station:DISL:BSCA:1,2013-12-02T13:30:00Z,30.3288,-87.8293,1013.9,11111222 
DISL,ioos:station:DISL:BSCA:1,2013-12-02T14:00:00Z,30.3288,-87.8293,1013.9,11111222 
DISL,ioos:station:DISL:BSCA:1,2013-12-02T14:30:00Z,30.3288,-87.8293,1013.9,11111222 
DISL,ioos:station:DISL:BSCA:1,2013-12-02T15:00:00Z,30.3288,-87.8293,1013.9,11111222 
DISL,ioos:station:DISL:BSCA:1,2013-12-02T15:30:00Z,30.3288,-87.8293,1013.9,11111222 
DISL,ioos:station:DISL:BSCA:1,2013-12-02T16:00:00Z,30.3288,-87.8293,1013.5,11111222 
DISL,ioos:station:DISL:BSCA:1,2013-12-02T16:30:00Z,30.3288,-87.8293,1013.5,11111222 
DISL,ioos:station:DISL:BSCA:1,2013-12-02T17:00:00Z,30.3288,-87.8293,1013.2,11111222 
DISL,ioos:station:DISL:BSCA:1,2013-12-02T17:30:00Z,30.3288,-87.8293,1012.5,11111222 
DISL,ioos:station:DISL:BSCA:1,2013-12-02T18:00:00Z,30.3288,-87.8293,1012.2,11111222 
DISL,ioos:station:DISL:BSCA:1,2013-12-02T18:30:00Z,30.3288,-87.8293,1011.9,11111222 
DISL,ioos:station:DISL:BSCA:1,2013-12-02T19:00:00Z,30.3288,-87.8293,1011.2,11111222 
DISL,ioos:station:DISL:BSCA:1,2013-12-02T19:30:00Z,30.3288,-87.8293,1010.8,11111222 
DISL,ioos:station:DISL:BSCA:1,2013-12-02T20:00:00Z,30.3288,-87.8293,1010.5,11111222 
DISL,ioos:station:DISL:BSCA:1,2013-12-02T20:30:00Z,30.3288,-87.8293,1010.5,11111222 
DISL,ioos:station:DISL:BSCA:1,2013-12-02T21:00:00Z,30.3288,-87.8293,1010.2,11111222 
DISL,ioos:station:DISL:BSCA:1,2013-12-02T21:30:00Z,30.3288,-87.8293,1010.2,11111222 
DISL,ioos:station:DISL:BSCA:1,2013-12-02T22:00:00Z,30.3288,-87.8293,1009.8,11111222 
DISL,ioos:station:DISL:BSCA:1,2013-12-02T22:30:00Z,30.3288,-87.8293,1010.2,11111222 
DISL,ioos:station:DISL:BSCA:1,2013-12-02T23:00:00Z,30.3288,-87.8293,1009.5,11111222 
DISL,ioos:station:DISL:BSCA:1,2013-12-02T23:30:00Z,30.3288,-87.8293,1009.8,11111222 
DISL,ioos:station:DISL:BSCA:1,2013-12-03T00:00:00Z,30.3288,-87.8293,1010.2,11111222 
DISL,ioos:station:DISL:BSCA:1,2013-12-03T00:30:00Z,30.3288,-87.8293,1010.2,11111222 
DISL,ioos:station:DISL:BSCA:1,2013-12-03T01:00:00Z,30.3288,-87.8293,1010.2,11111222 
DISL,ioos:station:DISL:BSCA:1,2013-12-03T01:30:00Z,30.3288,-87.8293,1010.2,11111222 
DISL,ioos:station:DISL:BSCA:1,2013-12-03T02:00:00Z,30.3288,-87.8293,1009.8,11111222 
DISL,ioos:station:DISL:BSCA:1,2013-12-03T02:30:00Z,30.3288,-87.8293,1010.2,11111222 
DISL,ioos:station:DISL:BSCA:1,2013-12-03T03:00:00Z,30.3288,-87.8293,1010.2,11111222 
DISL,ioos:station:DISL:BSCA:1,2013-12-03T03:30:00Z,30.3288,-87.8293,1010.2,11111222 
DISL,ioos:station:DISL:BSCA:1,2013-12-03T04:00:00Z,30.3288,-87.8293,1010.8,11111222 
DISL,ioos:station:DISL:BSCA:1,2013-12-03T04:30:00Z,30.3288,-87.8293,1010.8,11111222 
DISL,ioos:station:DISL:BSCA:1,2013-12-03T05:00:00Z,30.3288,-87.8293,1010.5,11111222 
DISL,ioos:station:DISL:BSCA:1,2013-12-03T05:30:00Z,30.3288,-87.8293,1010.5,11111222 
DISL,ioos:station:DISL:BSCA:1,2013-12-03T06:00:00Z,30.3288,-87.8293,1010.2,11111222 
DISL,ioos:station:DISL:BSCA:1,2013-12-03T06:30:00Z,30.3288,-87.8293,1009.8,11111222 
DISL,ioos:station:DISL:BSCA:1,2013-12-03T07:00:00Z,30.3288,-87.8293,1009.5,11111222 
DISL,ioos:station:DISL:BSCA:1,2013-12-03T07:30:00Z,30.3288,-87.8293,1009.5,11111222 
DISL,ioos:station:DISL:BSCA:1,2013-12-03T08:00:00Z,30.3288,-87.8293,1009.5,11111222 
DISL,ioos:station:DISL:BSCA:1,2013-12-03T08:30:00Z,30.3288,-87.8293,1009.1,11111222 
DISL,ioos:station:DISL:BSCA:1,2013-12-03T09:00:00Z,30.3288,-87.8293,1009.5,11111222 
DISL,ioos:station:DISL:BSCA:1,2013-12-03T09:30:00Z,30.3288,-87.8293,1009.5,11111222 
DISL,ioos:station:DISL:BSCA:1,2013-12-03T10:00:00Z,30.3288,-87.8293,1009.5,11111222 
DISL,ioos:station:DISL:BSCA:1,2013-12-03T10:30:00Z,30.3288,-87.8293,1009.1,11111222 
DISL,ioos:station:DISL:BSCA:1,2013-12-03T11:00:00Z,30.3288,-87.8293,1008.8,11111222 
DISL,ioos:station:DISL:BSCA:1,2013-12-03T11:30:00Z,30.3288,-87.8293,1009.1,11111222 
DISL,ioos:station:DISL:BSCA:1,2013-12-03T12:00:00Z,30.3288,-87.8293,1009.5,11111222 
DISL,ioos:station:DISL:BSCA:1,2013-12-03T12:30:00Z,30.3288,-87.8293,1009.5,11111222 
DISL,ioos:station:DISL:BSCA:1,2013-12-03T13:00:00Z,30.3288,-87.8293,1009.8,11111222 
DISL,ioos:station:DISL:BSCA:1,2013-12-03T13:30:00Z,30.3288,-87.8293,1010.2,11111222 
DISL,ioos:station:DISL:BSCA:1,2013-12-03T14:00:00Z,30.3288,-87.8293,1010.2,11111222 
DISL,ioos:station:DISL:BSCA:1,2013-12-03T14:30:00Z,30.3288,-87.8293,1010.5,11111222 
DISL,ioos:station:DISL:BSCA:1,2013-12-03T15:00:00Z,30.3288,-87.8293,1011.2,11111222 
DISL,ioos:station:DISL:BSCA:1,2013-12-03T15:30:00Z,30.3288,-87.8293,1011.5,11111222 
DISL,ioos:station:DISL:BSCA:1,2013-12-03T16:00:00Z,30.3288,-87.8293,1011.5,11111222 
DISL,ioos:station:DISL:BSCA:1,2013-12-03T16:30:00Z,30.3288,-87.8293,1011.2,11111222 
DISL,ioos:station:DISL:BSCA:1,2013-12-03T17:00:00Z,30.3288,-87.8293,1010.8,11111222 
DISL,ioos:station:DISL:BSCA:1,2013-12-03T17:30:00Z,30.3288,-87.8293,1010.8,11111222 
DISL,ioos:station:DISL:BSCA:1,2013-12-03T18:00:00Z,30.3288,-87.8293,1010.2,11111222 
DISL,ioos:station:DISL:BSCA:1,2013-12-03T18:30:00Z,30.3288,-87.8293,1009.8,11111222 
DISL,ioos:station:DISL:BSCA:1,2013-12-03T19:00:00Z,30.3288,-87.8293,1009.5,11111222 
DISL,ioos:station:DISL:BSCA:1,2013-12-03T19:30:00Z,30.3288,-87.8293,1009.5,11111222 
DISL,ioos:station:DISL:BSCA:1,2013-12-03T20:00:00Z,30.3288,-87.8293,1009.1,11111222 
DISL,ioos:station:DISL:BSCA:1,2013-12-03T20:30:00Z,30.3288,-87.8293,1009.1,11111222 
DISL,ioos:station:DISL:BSCA:1,2013-12-03T21:00:00Z,30.3288,-87.8293,1009.1,11111222 
DISL,ioos:station:DISL:BSCA:1,2013-12-03T21:30:00Z,30.3288,-87.8293,1008.8,11111222 
DISL,ioos:station:DISL:BSCA:1,2013-12-03T22:00:00Z,30.3288,-87.8293,1008.8,11111222 
DISL,ioos:station:DISL:BSCA:1,2013-12-03T22:30:00Z,30.3288,-87.8293,1008.8,11111222 
DISL,ioos:station:DISL:BSCA:1,2013-12-03T23:00:00Z,30.3288,-87.8293,1009.1,11111222 
DISL,ioos:station:DISL:BSCA:1,2013-12-03T23:30:00Z,30.3288,-87.8293,1009.5,11111222 
DISL,ioos:station:DISL:BSCA:1,2013-12-04T00:00:00Z,30.3288,-87.8293,1009.8,11111222 
DISL,ioos:station:DISL:BSCA:1,2013-12-04T00:30:00Z,30.3288,-87.8293,1010.2,11111222 
DISL,ioos:station:DISL:BSCA:1,2013-12-04T01:00:00Z,30.3288,-87.8293,1010.5,11111222 
DISL,ioos:station:DISL:BSCA:1,2013-12-04T01:30:00Z,30.3288,-87.8293,1010.5,11111222 
DISL,ioos:station:DISL:BSCA:1,2013-12-04T02:00:00Z,30.3288,-87.8293,1010.5,11111222 
DISL,ioos:station:DISL:BSCA:1,2013-12-04T02:30:00Z,30.3288,-87.8293,1010.8,11111222 
DISL,ioos:station:DISL:BSCA:1,2013-12-04T03:00:00Z,30.3288,-87.8293,1010.8,11111222 
DISL,ioos:station:DISL:BSCA:1,2013-12-04T03:30:00Z,30.3288,-87.8293,1011.2,11111222 
DISL,ioos:station:DISL:BSCA:1,2013-12-04T04:00:00Z,30.3288,-87.8293,9999.0,11144222 
DISL,ioos:station:DISL:BSCA:1,2013-12-04T05:00:00Z,30.3288,-87.8293,9999.0,11144222 
DISL,ioos:station:DISL:BSCA:1,2013-12-04T05:30:00Z,30.3288,-87.8293,9999.0,11144222 
DISL,ioos:station:DISL:BSCA:1,2013-12-04T06:30:00Z,30.3288,-87.8293,1011.5,11111222 
DISL,ioos:station:DISL:BSCA:1,2013-12-04T07:00:00Z,30.3288,-87.8293,1011.5,11111222 
DISL,ioos:station:DISL:BSCA:1,2013-12-04T07:30:00Z,30.3288,-87.8293,1011.5,11111222 
DISL,ioos:station:DISL:BSCA:1,2013-12-04T08:00:00Z,30.3288,-87.8293,1011.9,11111222 
DISL,ioos:station:DISL:BSCA:1,2013-12-04T08:30:00Z,30.3288,-87.8293,1011.9,11111222 
DISL,ioos:station:DISL:BSCA:1,2013-12-04T09:00:00Z,30.3288,-87.8293,1011.9,11111222 
DISL,ioos:station:DISL:BSCA:1,2013-12-04T09:30:00Z,30.3288,-87.8293,1011.9,11111222 
DISL,ioos:station:DISL:BSCA:1,2013-12-04T10:00:00Z,30.3288,-87.8293,1011.9,11111222 
DISL,ioos:station:DISL:BSCA:1,2013-12-04T10:30:00Z,30.3288,-87.8293,1011.9,11111222 
DISL,ioos:station:DISL:BSCA:1,2013-12-04T11:00:00Z,30.3288,-87.8293,1012.2,11111222 
DISL,ioos:station:DISL:BSCA:1,2013-12-04T11:30:00Z,30.3288,-87.8293,1012.2,11111222 
DISL,ioos:station:DISL:BSCA:1,2013-12-04T12:00:00Z,30.3288,-87.8293,1012.5,11111222 
DISL,ioos:station:DISL:BSCA:1,2013-12-04T12:30:00Z,30.3288,-87.8293,1012.9,11111222 
DISL,ioos:station:DISL:BSCA:1,2013-12-04T13:00:00Z,30.3288,-87.8293,1013.2,11111222 
DISL,ioos:station:DISL:BSCA:1,2013-12-04T13:30:00Z,30.3288,-87.8293,1013.5,11111222 
DISL,ioos:station:DISL:BSCA:1,2013-12-04T14:00:00Z,30.3288,-87.8293,1013.9,11111222 
DISL,ioos:station:DISL:BSCA:1,2013-12-04T14:30:00Z,30.3288,-87.8293,1014.2,11111222 
DISL,ioos:station:DISL:BSCA:1,2013-12-04T15:00:00Z,30.3288,-87.8293,1014.6,11111222 
DISL,ioos:station:DISL:BSCA:1,2013-12-04T15:30:00Z,30.3288,-87.8293,1014.9,11111222 
DISL,ioos:station:DISL:BSCA:1,2013-12-04T16:00:00Z,30.3288,-87.8293,1015.2,11111222 
DISL,ioos:station:DISL:BSCA:1,2013-12-04T16:30:00Z,30.3288,-87.8293,1015.2,11111222 
DISL,ioos:station:DISL:BSCA:1,2013-12-04T17:00:00Z,30.3288,-87.8293,1014.9,11111222 
DISL,ioos:station:DISL:BSCA:1,2013-12-04T17:30:00Z,30.3288,-87.8293,1014.2,11111222 
DISL,ioos:station:DISL:BSCA:1,2013-12-04T18:00:00Z,30.3288,-87.8293,1013.9,11111222 
DISL,ioos:station:DISL:BSCA:1,2013-12-04T18:30:00Z,30.3288,-87.8293,1013.9,11111222 
DISL,ioos:station:DISL:BSCA:1,2013-12-04T19:00:00Z,30.3288,-87.8293,1013.5,11111222 
DISL,ioos:station:DISL:BSCA:1,2013-12-04T19:30:00Z,30.3288,-87.8293,1013.2,11111222 
DISL,ioos:station:DISL:BSCA:1,2013-12-04T20:00:00Z,30.3288,-87.8293,1012.9,11111222 
DISL,ioos:station:DISL:BSCA:1,2013-12-04T20:30:00Z,30.3288,-87.8293,1013.2,11111222 
DISL,ioos:station:DISL:BSCA:1,2013-12-04T21:00:00Z,30.3288,-87.8293,1013.2,11111222 
DISL,ioos:station:DISL:BSCA:1,2013-12-04T21:30:00Z,30.3288,-87.8293,1013.2,11111222 
DISL,ioos:station:DISL:BSCA:1,2013-12-04T22:00:00Z,30.3288,-87.8293,1012.9,11111222 
DISL,ioos:station:DISL:BSCA:1,2013-12-04T22:30:00Z,30.3288,-87.8293,1012.9,11111222 
DISL,ioos:station:DISL:BSCA:1,2013-12-04T23:00:00Z,30.3288,-87.8293,1012.9,11111222 
DISL,ioos:station:DISL:BSCA:1,2013-12-04T23:30:00Z,30.3288,-87.8293,1013.2,11111222 
DISL,ioos:station:DISL:BSCA:1,2013-12-05T00:00:00Z,30.3288,-87.8293,1013.2,11111222 
DISL,ioos:station:DISL:BSCA:1,2013-12-05T00:30:00Z,30.3288,-87.8293,1013.5,11111222 
DISL,ioos:station:DISL:BSCA:1,2013-12-06T06:30:00Z,30.3288,-87.8293,9999.0,11144222 
DISL,ioos:station:DISL:BSCA:1,2013-12-06T07:00:00Z,30.3288,-87.8293,9999.0,11144222 
DISL,ioos:station:DISL:BSCA:1,2013-12-06T07:30:00Z,30.3288,-87.8293,9999.0,11144222 
DISL,ioos:station:DISL:BSCA:1,2013-12-06T08:00:00Z,30.3288,-87.8293,9999.0,11144222 
DISL,ioos:station:DISL:BSCA:1,2013-12-06T08:30:00Z,30.3288,-87.8293,9999.0,11144222 
DISL,ioos:station:DISL:BSCA:1,2013-12-06T09:00:00Z,30.3288,-87.8293,9999.0,11144222 
DISL,ioos:station:DISL:BSCA:1,2013-12-06T09:30:00Z,30.3288,-87.8293,9999.0,11144222 
DISL,ioos:station:DISL:BSCA:1,2013-12-06T10:00:00Z,30.3288,-87.8293,9999.0,11144222 
DISL,ioos:station:DISL:BSCA:1,2013-12-06T10:30:00Z,30.3288,-87.8293,9999.0,11144222 
DISL,ioos:station:DISL:BSCA:1,2013-12-06T11:00:00Z,30.3288,-87.8293,9999.0,11144222 
DISL,ioos:station:DISL:BSCA:1,2013-12-06T11:30:00Z,30.3288,-87.8293,9999.0,11144222 
DISL,ioos:station:DISL:BSCA:1,2013-12-06T12:00:00Z,30.3288,-87.8293,9999.0,11144222 
DISL,ioos:station:DISL:BSCA:1,2013-12-06T12:30:00Z,30.3288,-87.8293,9999.0,11144222 
DISL,ioos:station:DISL:BSCA:1,2013-12-06T13:00:00Z,30.3288,-87.8293,9999.0,11144222 
DISL,ioos:station:DISL:BSCA:1,2013-12-06T13:30:00Z,30.3288,-87.8293,9999.0,11144222 
DISL,ioos:station:DISL:BSCA:1,2013-12-06T14:00:00Z,30.3288,-87.8293,9999.0,11144222 
DISL,ioos:station:DISL:BSCA:1,2013-12-06T14:30:00Z,30.3288,-87.8293,9999.0,11144222 
DISL,ioos:station:DISL:BSCA:1,2013-12-06T15:00:00Z,30.3288,-87.8293,9999.0,11144222 
DISL,ioos:station:DISL:BSCA:1,2013-12-06T15:30:00Z,30.3288,-87.8293,9999.0,11144222 
DISL,ioos:station:DISL:BSCA:1,2013-12-09T06:30:00Z,30.3288,-87.8293,1018.3,11111222 
DISL,ioos:station:DISL:BSCA:1,2013-12-09T07:00:00Z,30.3288,-87.8293,1018.3,11111222 
DISL,ioos:station:DISL:BSCA:1,2013-12-09T07:30:00Z,30.3288,-87.8293,1018.3,11111222 
DISL,ioos:station:DISL:BSCA:1,2013-12-09T08:00:00Z,30.3288,-87.8293,1018.0,11111222 
DISL,ioos:station:DISL:BSCA:1,2013-12-09T08:30:00Z,30.3288,-87.8293,1018.3,11111222 
DISL,ioos:station:DISL:BSCA:1,2013-12-09T09:00:00Z,30.3288,-87.8293,1018.0,11111222 
DISL,ioos:station:DISL:BSCA:1,2013-12-09T09:30:00Z,30.3288,-87.8293,1018.0,11111222 
DISL,ioos:station:DISL:BSCA:1,2013-12-09T10:00:00Z,30.3288,-87.8293,1017.6,11111222 
DISL,ioos:station:DISL:BSCA:1,2013-12-09T10:30:00Z,30.3288,-87.8293,1018.0,11111222 
DISL,ioos:station:DISL:BSCA:1,2013-12-09T11:00:00Z,30.3288,-87.8293,1018.0,11111222 
DISL,ioos:station:DISL:BSCA:1,2013-12-09T11:30:00Z,30.3288,-87.8293,1018.0,11111222 
DISL,ioos:station:DISL:BSCA:1,2013-12-09T12:00:00Z,30.3288,-87.8293,1018.0,11111222 
DISL,ioos:station:DISL:BSCA:1,2013-12-09T12:30:00Z,30.3288,-87.8293,1018.3,11111222 
DISL,ioos:station:DISL:BSCA:1,2013-12-09T13:00:00Z,30.3288,-87.8293,1018.6,11111222 
DISL,ioos:station:DISL:BSCA:1,2013-12-09T13:30:00Z,30.3288,-87.8293,1019.0,11111222 
DISL,ioos:station:DISL:BSCA:1,2013-12-09T14:00:00Z,30.3288,-87.8293,1019.3,11111222 
DISL,ioos:station:DISL:BSCA:1,2013-12-09T14:30:00Z,30.3288,-87.8293,1019.3,11111222 
DISL,ioos:station:DISL:BSCA:1,2013-12-09T15:00:00Z,30.3288,-87.8293,1019.6,11111222 
DISL,ioos:station:DISL:BSCA:1,2013-12-09T15:30:00Z,30.3288,-87.8293,1020.0,11111222 
DISL,ioos:station:DISL:BSCA:1,2013-12-09T17:30:00Z,30.3288,-87.8293,1019.3,11111222 
DISL,ioos:station:DISL:BSCA:1,2013-12-09T18:00:00Z,30.3288,-87.8293,1018.6,11111222 
DISL,ioos:station:DISL:BSCA:1,2013-12-09T18:30:00Z,30.3288,-87.8293,1018.3,11111222 
DISL,ioos:station:DISL:BSCA:1,2013-12-09T19:00:00Z,30.3288,-87.8293,1018.3,11111222 
DISL,ioos:station:DISL:BSCA:1,2013-12-09T19:30:00Z,30.3288,-87.8293,1018.3,11111222 
DISL,ioos:station:DISL:BSCA:1,2013-12-09T20:00:00Z,30.3288,-87.8293,1018.0,11111222 
DISL,ioos:station:DISL:BSCA:1,2013-12-09T20:30:00Z,30.3288,-87.8293,1018.0,11111222 
DISL,ioos:station:DISL:BSCA:1,2013-12-09T21:00:00Z,30.3288,-87.8293,1018.0,11111222 
DISL,ioos:station:DISL:BSCA:1,2013-12-09T21:30:00Z,30.3288,-87.8293,1018.0,11111222 
DISL,ioos:station:DISL:BSCA:1,2013-12-09T22:00:00Z,30.3288,-87.8293,1018.0,11111222 
DISL,ioos:station:DISL:BSCA:1,2013-12-09T22:30:00Z,30.3288,-87.8293,1018.0,11111222 
DISL,ioos:station:DISL:BSCA:1,2013-12-09T23:00:00Z,30.3288,-87.8293,1018.0,11111222 
DISL,ioos:station:DISL:BSCA:1,2013-12-09T23:30:00Z,30.3288,-87.8293,1018.0,11111222 
DISL,ioos:station:DISL:BSCA:1,2013-12-10T00:00:00Z,30.3288,-87.8293,1018.3,11111222 
DISL,ioos:station:DISL:BSCA:1,2013-12-10T00:30:00Z,30.3288,-87.8293,1018.3,11111222 
DISL,ioos:station:DISL:BSCA:1,2013-12-10T01:00:00Z,30.3288,-87.8293,1018.3,11111222 
DISL,ioos:station:DISL:BSCA:1,2013-12-10T01:30:00Z,30.3288,-87.8293,1018.3,11111222 
DISL,ioos:station:DISL:BSCA:1,2013-12-10T02:00:00Z,30.3288,-87.8293,1018.6,11111222 
DISL,ioos:station:DISL:BSCA:1,2013-12-10T02:30:00Z,30.3288,-87.8293,1018.3,11111222 
DISL,ioos:station:DISL:BSCA:1,2013-12-10T03:00:00Z,30.3288,-87.8293,1018.3,11111222 
DISL,ioos:station:DISL:BSCA:1,2013-12-10T03:30:00Z,30.3288,-87.8293,1018.3,11111222 
DISL,ioos:station:DISL:BSCA:1,2013-12-10T04:00:00Z,30.3288,-87.8293,1018.3,11111222 
DISL,ioos:station:DISL:BSCA:1,2013-12-10T04:30:00Z,30.3288,-87.8293,1018.3,11111222 
DISL,ioos:station:DISL:BSCA:1,2013-12-10T05:00:00Z,30.3288,-87.8293,1018.0,11111222 
DISL,ioos:station:DISL:BSCA:1,2013-12-10T06:30:00Z,30.3288,-87.8293,1017.3,11111222 
DISL,ioos:station:DISL:BSCA:1,2013-12-10T07:00:00Z,30.3288,-87.8293,1017.3,11111222 
DISL,ioos:station:DISL:BSCA:1,2013-12-10T07:30:00Z,30.3288,-87.8293,1016.9,11111222 
DISL,ioos:station:DISL:BSCA:1,2013-12-10T08:00:00Z,30.3288,-87.8293,1017.6,11111222 
DISL,ioos:station:DISL:BSCA:1,2013-12-10T08:30:00Z,30.3288,-87.8293,1017.6,11111222 
DISL,ioos:station:DISL:BSCA:1,2013-12-10T09:00:00Z,30.3288,-87.8293,1017.6,11111222 
DISL,ioos:station:DISL:BSCA:1,2013-12-10T09:30:00Z,30.3288,-87.8293,1018.0,11111222 
DISL,ioos:station:DISL:BSCA:1,2013-12-10T10:00:00Z,30.3288,-87.8293,1018.0,11111222 
DISL,ioos:station:DISL:BSCA:1,2013-12-10T10:30:00Z,30.3288,-87.8293,1018.6,11111222 
DISL,ioos:station:DISL:BSCA:1,2013-12-10T11:00:00Z,30.3288,-87.8293,1019.3,11111222 
DISL,ioos:station:DISL:BSCA:1,2013-12-10T11:30:00Z,30.3288,-87.8293,1020.3,11111222 
DISL,ioos:station:DISL:BSCA:1,2013-12-10T12:00:00Z,30.3288,-87.8293,1021.0,11111222 
DISL,ioos:station:DISL:BSCA:1,2013-12-10T12:30:00Z,30.3288,-87.8293,1021.3,11111222 
DISL,ioos:station:DISL:BSCA:1,2013-12-10T13:00:00Z,30.3288,-87.8293,1022.0,11111222 
DISL,ioos:station:DISL:BSCA:1,2013-12-10T13:30:00Z,30.3288,-87.8293,1022.4,11111222 
DISL,ioos:station:DISL:BSCA:1,2013-12-10T14:00:00Z,30.3288,-87.8293,1023.4,11111222 
DISL,ioos:station:DISL:BSCA:1,2013-12-10T14:30:00Z,30.3288,-87.8293,1024.4,11111222 
DISL,ioos:station:DISL:BSCA:1,2013-12-10T15:00:00Z,30.3288,-87.8293,1025.1,11111222 
DISL,ioos:station:DISL:BSCA:1,2013-12-10T15:30:00Z,30.3288,-87.8293,1025.4,11111222 
DISL,ioos:station:DISL:BSCA:1,2013-12-10T16:00:00Z,30.3288,-87.8293,1025.7,11111222 
DISL,ioos:station:DISL:BSCA:1,2013-12-10T16:30:00Z,30.3288,-87.8293,1025.7,11111222 
DISL,ioos:station:DISL:BSCA:1,2013-12-10T17:00:00Z,30.3288,-87.8293,1025.7,11111222 
DISL,ioos:station:DISL:BSCA:1,2013-12-10T17:30:00Z,30.3288,-87.8293,1025.4,11111222 
DISL,ioos:station:DISL:BSCA:1,2013-12-10T18:00:00Z,30.3288,-87.8293,1025.1,11111222 
DISL,ioos:station:DISL:BSCA:1,2013-12-10T18:30:00Z,30.3288,-87.8293,1024.4,11111222 
DISL,ioos:station:DISL:BSCA:1,2013-12-10T19:00:00Z,30.3288,-87.8293,1024.0,11111222 
DISL,ioos:station:DISL:BSCA:1,2013-12-10T19:30:00Z,30.3288,-87.8293,1023.7,11111222 